Location: Austin
(30.3000°N, 97.7500°W)
Time: 02:00:33
(UTC-06:00)

CORIOLIS - Pass Details

Date: 20 November 2023
Orbit: 817 x 838 km, 98.7° (Epoch: 05 December)

Event Time Altitude Azimuth Distance (km) Brightness Sun altitude
Rises 18:13:03 0° 169° (S) 3,333 7.4 -9.1°
Reaches altitude 10° 18:15:24 10° 171° (S) 2,402 6.7 -9.6°
Maximum altitude 18:20:43 77° 257° (WSW) 839 4.3 -10.7°
Drops below altitude 10° 18:26:03 10° 344° (NNW) 2,412 6.6 -11.8°
Sets 18:28:24 0° 346° (NNW) 3,348 7.3 -12.3°
